CW9585 Weather Reports


Display with metric or nautical units.
time (UTC)temp
F
wind
direction
speed
MPH
gust
MPH
rain 1hr
in
rain 24hr
in
rain mn
in
humidity
%
barometer
mb
20260502224204 63 202 6.0 13.0 0.00 0.00 0.00 74 1013.1
20260502223704 64 203 5.0 13.0 0.00 0.00 0.00 73 1013.2
20260502223204 64 249 6.0 13.0 0.00 0.00 0.00 73 1013.2
20260502222704 64 178 5.0 13.0 0.00 0.00 0.00 73 1013.4
20260502222204 63 215 5.0 11.0 0.00 0.00 0.00 74 1013.4
20260502220705 63 222 5.0 12.0 0.00 0.00 0.00 75 1013.7
20260502220205 62 205 5.0 12.0 0.00 0.00 0.00 76 1013.9
20260502214706 62 228 5.0 9.0 0.00 0.00 0.00 77 1014.1
20260502213704 62 236 4.0 10.0 0.00 0.00 0.00 78 1014.3
20260502212705 62 250 4.0 10.0 0.00 0.00 0.00 79 1014.3
20260502212205 62 252 4.0 10.0 0.00 0.00 0.00 80 1014.3
20260502211704 61 161 4.0 10.0 0.00 0.00 0.00 81 1014.3
20260502211204 61 199 4.0 9.0 0.00 0.00 0.00 83 1014.2
20260502210705 60 211 4.0 9.0 0.00 0.00 0.00 83 1014.3
20260502205704 59 221 4.0 9.0 0.00 0.00 0.00 84 1014.4
20260502205204 59 200 5.0 11.0 0.00 0.00 0.00 84 1014.4
20260502204704 59 189 4.0 11.0 0.00 0.00 0.00 84 1014.6
20260502204204 59 225 6.0 11.0 0.00 0.00 0.00 85 1014.6
20260502203205 59 200 5.0 11.0 0.00 0.00 0.00 85 1014.9
20260502202704 58 185 5.0 11.0 0.00 0.00 0.00 85 1014.9
20260502202204 58 203 6.0 11.0 0.00 0.00 0.00 85 1015.0
20260502201204 58 196 5.0 11.0 0.00 0.00 0.00 86 1015.0
20260502200704 58 234 5.0 11.0 0.00 0.00 0.00 86 1015.3
20260502195704 58 211 5.0 10.0 0.00 0.00 0.00 87 1015.4
20260502195204 58 198 6.0 11.0 0.00 0.00 0.00 87 1015.5
20260502194705 57 211 6.0 11.0 0.00 0.00 0.00 87 1015.5
20260502194204 57 186 5.0 11.0 0.00 0.00 0.00 87 1015.5
20260502193206 57 213 5.0 10.0 0.00 0.00 0.00 87 1015.6
20260502192704 57 238 5.0 10.0 0.00 0.00 0.00 87 1015.6
20260502192205 57 198 5.0 10.0 0.00 0.00 0.00 87 1015.6
20260502191204 57 217 5.0 9.0 0.00 0.00 0.00 87 1015.7
20260502190204 57 200 4.0 10.0 0.00 0.00 0.00 87 1015.7
20260502185704 57 181 4.0 10.0 0.00 0.00 0.00 87 1015.8
20260502185204 57 194 4.0 9.0 0.00 0.00 0.00 87 1015.7
20260502184704 57 207 4.0 9.0 0.00 0.00 0.00 86 1015.6
20260502184204 57 288 4.0 9.0 0.00 0.00 0.00 86 1015.6
20260502183706 57 215 4.0 9.0 0.00 0.00 0.00 86 1015.6
20260502183204 57 226 4.0 9.0 0.00 0.00 0.00 86 1015.6
20260502182704 57 215 4.0 9.0 0.00 0.00 0.00 86 1015.5
20260502182205 57 198 4.0 8.0 0.00 0.00 0.00 85 1015.6
20260502181706 57 201 4.0 9.0 0.00 0.00 0.00 85 1015.6
20260502181205 57 219 4.0 9.0 0.00 0.00 0.00 85 1015.6
20260502180704 57 198 4.0 9.0 0.00 0.00 0.00 85 1015.6
20260502180205 57 204 3.0 8.0 0.00 0.00 0.00 84 1015.5
20260502164205 56 317 1.0 3.0 0.00 0.00 0.00 86 1015.2
20260502162705 56 58 1.0 3.0 0.00 0.00 0.00 87 1015.1
20260502161704 56 46 0.0 4.0 0.00 0.00 0.00 87 1015.0
20260502161205 55 33 1.0 4.0 0.00 0.00 0.00 88 1015.1
20260502160706 55 297 1.0 4.0 0.00 0.00 0.00 88 1015.1
20260502160205 55 317 0.0 0.0 0.00 0.00 0.00 88 1015.0
20260502152204 55 136 1.0 5.0 0.00 0.00 0.00 90 1014.6
20260502151205 55 146 0.0 3.0 0.00 0.00 0.00 91 1014.6
20260502150705 55 146 0.0 3.0 0.00 0.00 0.00 91 1014.4
20260502150205 54 134 0.0 0.0 0.00 0.00 0.00 91 1014.4
20260502130705 54 227 1.0 3.0 0.00 0.00 0.00 92 1013.9
20260502123205 55 225 1.0 4.0 0.00 0.00 0.00 92 1013.9
20260502122705 54 209 0.0 0.0 0.00 0.00 0.00 92 1013.8
20260502121704 54 85 0.0 0.0 0.00 0.00 0.00 92 1013.7
20260502121204 54 85 0.0 0.0 0.00 0.00 0.00 92 1013.7
20260502120205 54 85 0.0 0.0 0.00 0.00 0.00 92 1013.5
20260502115705 54 85 0.0 0.0 0.00 0.00 0.00 92 1013.6
20260502115205 54 86 0.0 0.0 0.00 0.00 0.00 91 1013.6
20260502114704 54 85 0.0 0.0 0.00 0.00 0.00 91 1013.7
20260502114204 54 85 0.0 0.0 0.00 0.00 0.00 91 1013.7
20260502113704 54 86 0.0 0.0 0.00 0.00 0.00 91 1013.6
20260502112204 54 85 0.0 0.0 0.00 0.00 0.00 91 1013.5
20260502111204 54 85 0.0 3.0 0.00 0.00 0.00 91 1013.5
20260502110704 54 85 0.0 3.0 0.00 0.00 0.00 91 1013.5
20260502105205 55 67 0.0 0.0 0.00 0.00 0.00 91 1013.7
20260502104704 54 67 0.0 0.0 0.00 0.00 0.00 91 1013.7
20260502103704 55 37 0.0 3.0 0.00 0.00 0.00 91 1013.8
20260502103204 55 40 1.0 3.0 0.00 0.00 0.00 91 1013.8
20260502102704 55 43 1.0 4.0 0.00 0.00 0.00 91 1013.7
20260502102205 55 5 1.0 4.0 0.00 0.00 0.00 91 1013.7
20260502101704 55 74 1.0 4.0 0.00 0.00 0.00 91 1013.7
20260502101205 55 82 1.0 4.0 0.00 0.00 0.00 90 1013.8
20260502100704 55 57 1.0 5.0 0.00 0.00 0.00 90 1013.8
20260502100204 55 17 0.0 5.0 0.00 0.00 0.00 90 1013.8
20260502091204 55 24 1.0 5.0 0.00 0.00 0.00 90 1014.2
20260502090704 55 330 2.0 5.0 0.00 0.00 0.00 90 1014.4
20260502090205 55 62 2.0 5.0 0.00 0.00 0.00 90 1014.5
20260502070706 55 40 1.0 5.0 0.00 0.00 0.00 90 1014.6
20260502070204 55 70 2.0 8.0 0.00 0.00 0.00 89 1014.7
20260502065704 55 99 2.0 8.0 0.00 0.00 0.00 89 1014.6
20260502064705 55 61 3.0 6.0 0.00 0.00 0.00 89 1014.6
20260502064205 55 78 2.0 6.0 0.00 0.00 0.00 89 1014.7
20260502063204 55 72 2.0 6.0 0.00 0.00 0.00 89 1014.6
20260502062704 55 87 2.0 5.0 0.00 0.00 0.00 89 1014.6
20260502062205 55 59 2.0 5.0 0.00 0.00 0.00 89 1014.6
20260502061704 55 84 2.0 5.0 0.00 0.00 0.00 89 1014.6
20260502061204 55 83 2.0 6.0 0.00 0.00 0.00 89 1014.6
20260502060705 55 75 3.0 7.0 0.00 0.00 0.00 89 1014.7
20260502060204 55 63 3.0 7.0 0.00 0.00 0.00 89 1014.6
20260502055705 55 82 2.0 7.0 0.00 0.00 0.00 89 1014.7
20260502055205 55 69 2.0 5.0 0.00 0.00 0.00 89 1014.7
20260502054704 55 94 1.0 5.0 0.00 0.00 0.00 89 1014.7
20260502054205 56 65 1.0 5.0 0.00 0.00 0.00 88 1014.7
20260502053704 56 120 1.0 6.0 0.00 0.00 0.00 88 1014.7
20260502053205 56 90 1.0 7.0 0.00 0.00 0.00 88 1014.8
20260502052704 56 41 2.0 7.0 0.00 0.00 0.00 88 1014.8
20260502052205 56 88 3.0 7.0 0.00 0.00 0.00 88 1014.7
20260502051705 56 57 3.0 7.0 0.00 0.00 0.00 88 1014.7
20260502051204 56 64 3.0 7.0 0.00 0.00 0.00 88 1014.7
20260502050704 56 41 3.0 7.0 0.00 0.00 0.00 87 1014.7
20260502050204 56 92 2.0 7.0 0.00 0.00 0.00 87 1014.8
20260502045704 56 37 2.0 7.0 0.00 0.00 0.00 87 1014.7
20260502045205 56 56 2.0 9.0 0.00 0.00 0.00 87 1014.7
20260502044204 56 63 4.0 9.0 0.00 0.00 0.00 86 1014.6
20260502043704 56 113 4.0 9.0 0.00 0.00 0.00 86 1014.5
20260502042204 57 53 4.0 10.0 0.00 0.00 0.00 85 1014.3
20260502041705 58 80 4.0 10.0 0.00 0.00 0.00 84 1014.2
20260502040704 58 86 4.0 10.0 0.00 0.00 0.00 84 1013.9
20260502035704 58 87 4.0 9.0 0.00 0.00 0.00 83 1013.9
20260502035204 59 92 4.0 9.0 0.00 0.00 0.00 82 1013.9
20260502034204 59 94 4.0 10.0 0.00 0.00 0.00 82 1013.7
20260502033204 60 74 2.0 9.0 0.00 0.00 0.00 81 1013.7
20260502032704 60 80 3.0 9.0 0.00 0.00 0.00 81 1013.5
20260502032205 60 88 3.0 9.0 0.00 0.00 0.00 81 1013.5
20260502031705 60 55 2.0 8.0 0.00 0.00 0.00 81 1013.4
20260502031205 60 124 3.0 7.0 0.00 0.00 0.00 81 1013.3
20260502030704 60 127 3.0 9.0 0.00 0.00 0.00 81 1013.3
20260502025704 60 45 4.0 12.0 0.00 0.00 0.00 82 1013.3
20260502025204 60 120 5.0 12.0 0.00 0.00 0.00 82 1013.1
20260502024704 61 100 7.0 12.0 0.00 0.00 0.00 81 1013.2
20260502024205 61 117 7.0 11.0 0.00 0.00 0.00 81 1013.1
20260502023705 61 105 7.0 11.0 0.00 0.00 0.00 80 1013.2
20260502023205 61 108 6.0 11.0 0.00 0.00 0.00 80 1013.2
20260502022704 62 121 5.0 11.0 0.00 0.00 0.00 79 1013.2
20260502022204 62 96 7.0 12.0 0.00 0.00 0.00 79 1013.0
20260502021705 62 136 7.0 12.0 0.00 0.00 0.00 79 1013.0
20260502021206 62 123 7.0 12.0 0.00 0.00 0.00 78 1013.0
20260502020705 62 110 6.0 10.0 0.00 0.00 0.00 78 1013.0
20260502020204 62 119 5.0 10.0 0.00 0.00 0.00 77 1012.9
20260502015704 62 109 4.0 10.0 0.00 0.00 0.00 78 1013.2
20260502014705 63 119 3.0 9.0 0.00 0.00 0.00 77 1013.0
20260502014204 63 95 3.0 9.0 0.00 0.00 0.00 77 1013.0
20260502012705 63 105 4.0 9.0 0.00 0.00 0.00 76 1013.1
20260502012204 63 39 3.0 9.0 0.00 0.00 0.00 76 1012.9
20260502011205 64 52 4.0 10.0 0.00 0.00 0.00 75 1013.0
20260502010704 64 91 4.0 10.0 0.00 0.00 0.00 75 1013.0
20260502005704 64 60 4.0 9.0 0.00 0.00 0.00 74 1013.0
20260502005205 65 94 5.0 10.0 0.00 0.00 0.00 73 1013.0
20260502004704 66 66 5.0 11.0 0.00 0.00 0.00 72 1013.0
20260502004204 66 53 4.0 11.0 0.00 0.00 0.00 71 1013.0
20260502003704 66 125 4.0 10.0 0.00 0.00 0.00 71 1012.9
20260502003204 66 82 4.0 10.0 0.00 0.00 0.00 70 1013.0
20260502002704 65 128 5.0 11.0 0.00 0.00 0.00 71 1013.1
20260502002205 66 57 5.0 11.0 0.00 0.00 0.00 71 1013.0
20260502001204 67 68 4.0 9.0 0.00 0.00 0.00 70 1013.0
20260502000704 67 71 4.0 9.0 0.00 0.00 0.00 69 1013.1
20260502000205 68 67 4.0 7.0 0.00 0.00 0.00 69 1013.1
20260501235704 68 105 3.0 7.0 0.00 0.00 0.00 68 1013.2
20260501235204 67 128 3.0 8.0 0.00 0.00 0.00 69 1013.2
20260501234705 67 69 3.0 8.0 0.00 0.00 0.00 69 1013.3
20260501234205 67 78 3.0 8.0 0.00 0.00 0.00 69 1013.3
20260501233206 68 74 3.0 8.0 0.00 0.00 0.00 68 1013.5
20260501232705 68 67 3.0 8.0 0.00 0.00 0.00 67 1013.5
20260501232205 68 120 3.0 8.0 0.00 0.00 0.00 68 1013.5
20260501231205 69 143 4.0 9.0 0.00 0.00 0.00 67 1013.6
20260501230205 68 103 5.0 8.0 0.00 0.00 0.00 66 1013.7
20260501225705 68 109 4.0 8.0 0.00 0.00 0.00 68 1013.7
20260501225204 68 109 4.0 8.0 0.00 0.00 0.00 67 1013.8
20260501224704 68 128 4.0 8.0 0.00 0.00 0.00 68 1013.9